Погода в Верхораменье

Россия / Кировская область     59°19′31″N   48°29′52″E
темп.,
°C
ветер,
м/с
пор.,
м/с
влажн.,
%
обл.,
%
осадки,
мм/ч
давл.,
гПа
погр.,
м
25 февраля, чт
чт2500:00−23ю239793 0.0 103240
03:00−24ю259881 0.0 103099
06:00−23ююв489694 0.0 1026251
09:00−21ююв499597 0.0 1024324
12:00−17ююв51194100 0.1 1021449
15:00−16юв51094100 0.5 1019545
18:00−18юв41094100 0.3 1018550
21:00−19ююв31095100 0.3 1018426
26 февраля, пт
пт2600:00−19юв3896100 0.1 1018391
03:00−21юв3897100 0.1 1018330
06:00−21юв3897100 0.0 1017334
09:00−20юв4997100 0.1 1016383
12:00−17юв5893100 0.0 1014513
15:00−16юв51192100 0.1 1012585
18:00−17юв61492100 0.1 1008630
21:00−17юв61392100 0.1 1006613
27 февраля, сб
сб2700:00−17вюв61295100 1.0 1004599
03:00−17вюв51193100 1.6 1003592
06:00−17вюв41095100 0.6 1003621
09:00−16в4992100 0.8 1004639
12:00−13в4889100 0.1 1005719
15:00−12всв4789100 0.2 1006776
18:00−15св2695100 0.1 1008171
21:00−16св269698 0.1 1009152
28 февраля, вс
вс2800:00−19св239856 0.0 101080
03:00−21ссв369838 0.0 1012111
06:00−23ссв359829 0.0 1013116
09:00−20св359516 0.0 1014256
12:00−16ссв359158 0.0 1015484
15:00−14ссв369179 0.0 1015521
18:00−19ссв239796 0.0 101741
21:00−21ссв229748 0.0 101920
1 марта, пн
пн100:00−21с12980 0.0 102020
03:00−22ссз12980 0.0 102120
06:00−23зсз11990 0.0 102220
09:00−17зюз23971 0.0 1021127
12:00−11юз359552 0.0 1020299
15:00−9юз489476 0.1 1017412
18:00−8юз51194100 0.1 1013460
21:00−6юз41196100 1.4 1010640